This is the latest recevied weather packets stored in our database for station/object KI6SYE. If no packets are shown the sender has not sent any weather packets the latest 10 day(s).
| Time | Temp. | Humidity | Pressure | Rain* | Wind** | Luminosity | Snow |
|---|---|---|---|---|---|---|---|
| 1777599280 | 16.67° C | 85% | 1011 hPa | 0 mm | - | 64 W/m² | - |
| 1777598976 | 17.22° C | 84% | 1010.9 hPa | 0 mm | - | 56 W/m² | - |
| 1777598674 | 17.22° C | 83% | 1010.9 hPa | 0 mm | - | 56 W/m² | - |
| 1777598369 | 17.22° C | 83% | 1010.9 hPa | 0 mm | - | 56 W/m² | - |
| 1777598068 | 17.22° C | 82% | 1010.8 hPa | 0 mm | - | 58 W/m² | - |
| 1777597767 | 17.22° C | 83% | 1010.9 hPa | 0 mm | - | 63 W/m² | - |
| 1777597462 | 17.78° C | 82% | 1010.8 hPa | 0 mm | - | 66 W/m² | - |
| 1777597158 | 17.78° C | 82% | 1011.1 hPa | 0 mm | - | 77 W/m² | - |
| 1777596854 | 17.78° C | 82% | 1011.1 hPa | 0 mm | - | 92 W/m² | - |
| 1777596550 | 17.78° C | 81% | 1011 hPa | 0 mm | - | 79 W/m² | - |
| 1777596247 | 18.33° C | 80% | 1011 hPa | 0 mm | - | 121 W/m² | - |
| 1777595945 | 17.78° C | 80% | 1010.9 hPa | 0 mm | - | 192 W/m² | - |
| 1777595645 | 18.33° C | 79% | 1011.1 hPa | 0 mm | - | 208 W/m² | - |
| 1777595341 | 18.33° C | 79% | 1011.1 hPa | 0 mm | - | 225 W/m² | - |
| 1777595037 | 17.78° C | 80% | 1011.2 hPa | 0 mm | - | 239 W/m² | - |
| 1777594734 | 17.78° C | 81% | 1010.9 hPa | 0 mm | - | 248 W/m² | - |
| 1777594430 | 17.78° C | 81% | 1011.1 hPa | 0 mm | - | 265 W/m² | - |
| 1777594125 | 18.33° C | 81% | 1010.8 hPa | 0 mm | - | 279 W/m² | - |
| 1777593822 | 18.33° C | 80% | 1010.9 hPa | 0 mm | - | 255 W/m² | - |
| 1777593519 | 18.33° C | 80% | 1010.8 hPa | 0 mm | - | 307 W/m² | - |
| 1777593213 | 18.33° C | 80% | 1010.8 hPa | 0 mm | - | 324 W/m² | - |
| 1777592912 | 18.89° C | 79% | 1010.7 hPa | 0 mm | - | 338 W/m² | - |
| 1777592608 | 18.89° C | 79% | 1010.7 hPa | 0 mm | - | 352 W/m² | - |
| 1777592304 | 18.89° C | 78% | 1010.7 hPa | 0 mm | - | 366 W/m² | - |
| 1777592000 | 18.89° C | 79% | 1010.8 hPa | 0 mm | - | 381 W/m² | - |
* Rain latest hour (hover to see other rain measurements)
** Current wind speed in m/s (hover to see current wind gust speed)